This is the latest recevied weather packets stored in our database for station/object WB4ZUT. If no packets are shown the sender has not sent any weather packets the latest 10 day(s).
| Time | Temp. | Humidity | Pressure | Rain* | Wind** | Luminosity | Snow |
|---|---|---|---|---|---|---|---|
| 1777462024 | 13.89° C | 99% | 1011.2 hPa | 0 mm | - | 6 W/m² | - |
| 1777461721 | 13.89° C | 99% | 1011.2 hPa | 0 mm | - | 2 W/m² | - |
| 1777461416 | 14.44° C | 99% | 1011.1 hPa | 0 mm | - | 2 W/m² | - |
| 1777461112 | 14.44° C | 99% | 1010.7 hPa | 0 mm | - | 1 W/m² | - |
| 1777460808 | 15° C | 99% | 1011 hPa | 0 mm | - | 0 W/m² | - |
| 1777460503 | 15° C | 99% | 1010.8 hPa | 1.78 mm | - | 0 W/m² | - |
| 1777460200 | 15.56° C | 99% | 1010.7 hPa | 3.05 mm | - | 0 W/m² | - |
| 1777459897 | 16.11° C | 99% | 1010.4 hPa | 1.27 mm | - | 0 W/m² | - |
| 1777459594 | 16.11° C | 99% | 1010.4 hPa | 1.78 mm | - | 0 W/m² | - |
| 1777459291 | 16.11° C | 99% | 1010.4 hPa | 1.27 mm | - | 0 W/m² | - |
| 1777458989 | 16.67° C | 99% | 1010.2 hPa | 1.27 mm | - | 0 W/m² | - |
| 1777458686 | 16.67° C | 99% | 1010.3 hPa | 1.78 mm | - | 0 W/m² | - |
| 1777458382 | 16.67° C | 99% | 1010.1 hPa | 4.83 mm | - | 0 W/m² | - |
| 1777458078 | 16.67° C | 99% | 1010 hPa | 3.05 mm | - | 0 W/m² | - |
| 1777457774 | 16.67° C | 99% | 1010.2 hPa | 1.27 mm | - | 0 W/m² | - |
| 1777457474 | 16.67° C | 99% | 1010.1 hPa | 3.05 mm | - | 0 W/m² | - |
| 1777457170 | 16.67° C | 99% | 1010.1 hPa | 1.78 mm | - | 0 W/m² | - |
| 1777456865 | 16.67° C | 99% | 1010.3 hPa | 1.78 mm | - | 0 W/m² | - |
| 1777456560 | 16.67° C | 99% | 1009.9 hPa | 1.78 mm | - | 0 W/m² | - |
| 1777456256 | 16.11° C | 99% | 1009.9 hPa | 1.27 mm | - | 0 W/m² | - |
| 1777455952 | 16.11° C | 99% | 1010.2 hPa | 3.05 mm | - | 0 W/m² | - |
| 1777455649 | 16.11° C | 99% | 1010.1 hPa | 4.83 mm | - | 0 W/m² | - |
| 1777455345 | 16.67° C | 99% | 1010.3 hPa | 7.11 mm | - | 0 W/m² | - |
| 1777455043 | 16.67° C | 99% | 1010.4 hPa | 10.16 mm | - | 0 W/m² | - |
| 1777454739 | 16.67° C | 99% | 1010.2 hPa | 9.65 mm | - | 0 W/m² | - |
* Rain latest hour (hover to see other rain measurements)
** Current wind speed in m/s (hover to see current wind gust speed)